Change the Weather History Date:

Friday, December 5, 2014

  Actual Average Record
Temperature  
Mean Temperature 79 °F 70 °F  
Max Temperature 82 °F 78 °F 90 °F (1941)
Min Temperature 75 °F 62 °F 41 °F (1968)
Degree Days  
Heating Degree Days 0 1  
Month to date heating degree days 0 5  
Since 1 July heating degree days 17 17  
Cooling Degree Days 14 6  
Month to date cooling degree days 63 30  
Year to date cooling degree days 4203 3896  
Growing Degree Days 28 (Base 50)    
Moisture  
Dew Point 68 °F    
Average Humidity 75    
Maximum Humidity 82    
Minimum Humidity 67    
Precipitation  
Precipitation 0.00 in 0.11 in 2.65 in (1994)
Month to date precipitation 0.41 0.56  
Year to date precipitation 59.94 59.51  
Snow  
Snow 0.00 in - - ()
Month to date snowfall 0.0  
Since 1 July snowfall 0.0  
Snow Depth 0.00 in    
Sea Level Pressure  
Sea Level Pressure 30.16 in    
Wind  
Wind Speed 14 mph (East)    
Max Wind Speed 21 mph    
Max Gust Speed 27 mph    
Visibility 10 miles    
Events      
T = Trace of Precipitation, MM = Missing Value Source: NWS Daily Summary

Daily Weather History Graph

Daily Weather History Graph

Search for Another Location

Airport or City:

Trip Planner

Search our weather history database for the weather conditions in past years. The results will help you decide how hot, cold, wet, or windy it might be!

Date:

Astronomy

Dec. 05, 2014 Rise Set
Actual Time 6:54 AM EST 5:27 PM EST
Civil Twilight 6:29 AM EST 5:52 PM EST
Nautical Twilight 6:00 AM EST 6:21 PM EST
Astronomical Twilight 5:32 AM EST 6:49 PM EST
Moon 5:06 PM EST (12/5) 5:53 AM EST (12/5)
Length of Visible Light 11h 23m
Length of Day
10h 32m
Waxing Gibbous, 99% of the Moon is Illuminated
Dec 5
Waxing Gibbous
Dec 6
Full
Dec 14
Last Quarter
Dec 21
New
Dec 28
First Quarter

Hourly Weather History & Observations

Time (EST) Temp. Heat Index Dew Point Humidity Pressure Visibility Wind Dir Wind Speed Gust Speed Precip Events Conditions
12:53 AM 75.9 °F - 69.1 °F 79% 30.13 in 10.0 mi East 13.8 mph - N/A   Mostly Cloudy
1:53 AM 75.9 °F - 69.1 °F 79% 30.13 in 10.0 mi ENE 11.5 mph - N/A   Mostly Cloudy
2:06 AM 75.9 °F - 69.1 °F 79% 30.13 in 10.0 mi East 11.5 mph - N/A   Mostly Cloudy
2:24 AM 75.9 °F - 68.0 °F 76% 30.12 in 10.0 mi East 12.7 mph - N/A   Mostly Cloudy
2:53 AM 75.9 °F - 68.0 °F 76% 30.12 in 10.0 mi East 12.7 mph - N/A   Mostly Cloudy
3:53 AM 75.9 °F - 68.0 °F 76% 30.12 in 10.0 mi East 10.4 mph - N/A   Mostly Cloudy
4:53 AM 75.9 °F - 68.0 °F 76% 30.13 in 10.0 mi East 11.5 mph - N/A   Mostly Cloudy
5:53 AM 75.9 °F - 68.0 °F 76% 30.14 in 10.0 mi East 10.4 mph - N/A   Scattered Clouds
6:53 AM 75.9 °F - 68.0 °F 76% 30.17 in 10.0 mi East 12.7 mph - N/A   Scattered Clouds
7:53 AM 77.0 °F - 68.0 °F 74% 30.18 in 10.0 mi East 12.7 mph - N/A   Scattered Clouds
8:53 AM 79.0 °F - 68.0 °F 69% 30.20 in 10.0 mi East 13.8 mph - N/A   Scattered Clouds
9:53 AM 80.1 °F 82.7 °F 68.0 °F 67% 30.21 in 10.0 mi East 18.4 mph 26.5 mph N/A   Scattered Clouds
10:53 AM 81.0 °F 84.1 °F 69.1 °F 67% 30.20 in 10.0 mi East 15.0 mph - N/A   Mostly Cloudy
11:53 AM 80.1 °F 82.7 °F 68.0 °F 67% 30.19 in 10.0 mi East 17.3 mph - N/A   Mostly Cloudy
12:53 PM 80.1 °F 82.9 °F 69.1 °F 69% 30.17 in 10.0 mi ENE 16.1 mph - N/A   Mostly Cloudy
1:53 PM 81.0 °F 84.1 °F 69.1 °F 67% 30.15 in 10.0 mi ENE 13.8 mph - N/A   Scattered Clouds
2:53 PM 81.0 °F 83.8 °F 68.0 °F 65% 30.14 in 10.0 mi ENE 15.0 mph - N/A   Scattered Clouds
3:53 PM 80.1 °F 82.7 °F 68.0 °F 67% 30.14 in 10.0 mi ENE 15.0 mph - N/A   Scattered Clouds
4:53 PM 79.0 °F - 68.0 °F 69% 30.16 in 10.0 mi East 15.0 mph - N/A   Mostly Cloudy
5:53 PM 78.1 °F - 68.0 °F 71% 30.17 in 10.0 mi East 13.8 mph - N/A   Mostly Cloudy
6:53 PM 77.0 °F - 68.0 °F 74% 30.18 in 10.0 mi East 13.8 mph - N/A   Mostly Cloudy
7:53 PM 77.0 °F - 66.9 °F 71% 30.19 in 10.0 mi East 16.1 mph - N/A   Mostly Cloudy
8:53 PM 77.0 °F - 66.0 °F 69% 30.19 in 10.0 mi East 16.1 mph 21.9 mph N/A   Mostly Cloudy
9:53 PM 77.0 °F - 66.9 °F 71% 30.20 in 10.0 mi East 15.0 mph - N/A   Mostly Cloudy
10:53 PM 75.9 °F - 66.0 °F 71% 30.19 in 10.0 mi East 15.0 mph - N/A   Scattered Clouds
11:53 PM 75.9 °F - 66.0 °F 71% 30.18 in 10.0 mi East 12.7 mph - N/A   Scattered Clouds